Tracking 19794 objects as of 22-Jul-2019
HD Live streaming from Space Station
objects crossing your sky now

TEMPSAT 2

Track TEMPSAT 2 now!
10-day predictions
TEMPSAT 2 is classified as:


NORAD ID: 4168
Int'l Code: 1969-082H
Perigee: 902.0 km
Apogee: 930.9 km
Inclination: 70.0 °
Period: 103.2 minutes
Semi major axis: 7287 km
RCS: 0.0673 m2 (small)
Launch date: September 30, 1969
Source: United States (US)
Launch site: AIR FORCE WESTERN TEST RANGE (AFWTR)
aabbcc
Your satellite tracking list
Your tracking list is empty




NASA's NSSDC Master Catalog

Two Line Element Set (TLE):
1  4168U 69082H   19202.81096933 -.00000022  00000-0  22393-4 0  9995
2  4168  70.0150  83.8820 0019801 180.6958 179.4123 13.95532099536208
Source of the keplerian elements: AFSPC